Карточка аэропорта UEEE

Внимание!
Информация на этой странице в стадии наполнения.
Если вы не увидели какой-то информации, или заметили неточность - пожалуйста сообщите нам!
Спасибо!
Команда RU-STAFF
Название аэропортаЯкутск
Название аэропорта (англ.)Yakutsk
Превышение325 ft. (99.1 m.)
Координаты62°5.5920000000002', 129°46.259999999999'
Высота перехода1000m
Эшелон переходаFL050
Коды ответчика3220-3237
Зона ОрВДЯкутск РПИ (UEEE)
Данные METARUEEE 090800Z 36001MPS 0500 R23L/0750N FG NSC M45/M49 Q1029 R23L/490150 NOSIG RMK QFE763
Проноз погоды (TAF)UEEE 090500Z 0906/1012 VRB01MPS 0300 FG VV003 TXM43/0906Z TNM49/0923Z TEMPO 0906/0912 0700 FG NSC
NOTAMshow/hide NOTAM
AWOS   TABLE

Информация о ВПП

ВПП Длина ВПП (м.) Покрытие Курс ВПП Частота ILS
05R3400Асфальтобетон52 
23L3400Асфальтобетон232111.7

Диспетчерские позиции

Позывной Наименование органа УВД Частота
UEEE_APPЯкутск-Подход129.3
UEEE_R_APPЯкутск-Круг120.3
UEEE_TWRЯкутск-Старт120.0
UEEE_GNDЯкутск-Руление121.7



Спутниковое изображение